User: anonymous   Login
Location: Cañada de la Miga
(34.7595°N, 106.2317°W)
Time: 08:18:08
(UTC+00:00)
Language:

Courier 1B Rocket - Orbit

View from above orbital plane
View from above orbital plane
View from above satellite
View from above satellite

Ground track
Ground track

The orbit data is extracted from the following two-line orbital elements,

1 00059U 60013B   21336.77799583  .00000100  00000-0  19230-4 0  9994
2 00059  28.2497 358.6118 0189327  82.5574 279.6440 13.52990664 18524
Epoch (UTC): 02 December 2021 18:40:18
Eccentricity: 0.0189327
inclination: 28.2497°
perigee height: 920 km
apogee height: 1202 km
right ascension of ascending node: 358.6118°
argument of perigee: 82.5574°
revolutions per day: 13.52990664
mean anomaly at epoch: 279.6440°
orbit number at epoch: 1852

The dashed part of the orbit path shows where the satellite is in the earth's shadow,  

DLR